This is the latest recevied weather packets stored in our database for station/object WW5JC. If no packets are shown the sender has not sent any weather packets the latest 10 day(s).
| Time | Temp. | Humidity | Pressure | Rain* | Wind** | Luminosity | Snow |
|---|---|---|---|---|---|---|---|
| 1777991881 | 21.67° C | 89% | 1006.7 hPa | 0 mm | - | 76 W/m² | - |
| 1777991579 | 21.67° C | 89% | 1006.9 hPa | 0 mm | - | 63 W/m² | - |
| 1777991276 | 21.67° C | 89% | 1006.9 hPa | 0 mm | - | 73 W/m² | - |
| 1777990973 | 21.67° C | 89% | 1006.9 hPa | 0 mm | - | 56 W/m² | - |
| 1777990671 | 21.67° C | 89% | 1006.9 hPa | 0 mm | - | 55 W/m² | - |
| 1777990368 | 21.67° C | 89% | 1007.1 hPa | 0 mm | - | 57 W/m² | - |
| 1777990064 | 21.67° C | 89% | 1006.8 hPa | 0 mm | - | 46 W/m² | - |
| 1777989761 | 21.67° C | 89% | 1006.9 hPa | 0 mm | - | 42 W/m² | - |
| 1777989457 | 21.67° C | 90% | 1006.8 hPa | 0 mm | - | 42 W/m² | - |
| 1777989154 | 21.67° C | 89% | 1006.7 hPa | 0 mm | - | 50 W/m² | - |
| 1777988850 | 21.67° C | 89% | 1006.9 hPa | 0 mm | - | 38 W/m² | - |
| 1777988547 | 21.67° C | 90% | 1006.8 hPa | 0 mm | - | 41 W/m² | - |
| 1777988244 | 21.67° C | 89% | 1006.6 hPa | 0 mm | - | 33 W/m² | - |
| 1777987941 | 21.67° C | 89% | 1006.8 hPa | 0 mm | - | 25 W/m² | - |
| 1777987636 | 21.67° C | 89% | 1006.7 hPa | 0 mm | - | 30 W/m² | - |
| 1777987334 | 21.67° C | 89% | 1006.7 hPa | 0 mm | - | 26 W/m² | - |
| 1777987031 | 21.11° C | 89% | 1006.8 hPa | 0 mm | - | 26 W/m² | - |
| 1777986729 | 21.67° C | 89% | 1006.8 hPa | 0 mm | - | 21 W/m² | - |
| 1777986426 | 21.67° C | 89% | 1006.8 hPa | 0 mm | - | 29 W/m² | - |
| 1777986124 | 21.11° C | 89% | 1006.6 hPa | 0 mm | - | 20 W/m² | - |
| 1777985820 | 21.11° C | 89% | 1006.6 hPa | 0 mm | - | 21 W/m² | - |
| 1777985518 | 21.11° C | 89% | 1006.4 hPa | 0 mm | - | 21 W/m² | - |
| 1777985214 | 21.11° C | 89% | 1006.7 hPa | 0 mm | - | 15 W/m² | - |
| 1777984911 | 21.11° C | 89% | 1006.5 hPa | 0 mm | - | 13 W/m² | - |
| 1777984607 | 21.11° C | 89% | 1006.7 hPa | 0 mm | - | 12 W/m² | - |
* Rain latest hour (hover to see other rain measurements)
** Current wind speed in m/s (hover to see current wind gust speed)